This demonstration page uses our WeatherBlox Daily Observations layout. Learn more.

Left ArrowRight Arrow

38.20091, -84.87328

Hourly Observations for January 2, 2020

Temp ( °F °C ) Dew Point ( °F °C ) Humidity (%) Winds ( mph kmh ) Pressure ( in mb ) Visibility ( mi km ) Precip ( " mm )
12:53 am 00:53 Clear 38 3.3 24 -4.4 57 57 S 7 11 29.87 1011 10 16 0.00 0.00
1:53 am 01:53 Clear 39 3.9 24 -4.4 55 55 S 6 9 29.85 1011 10 16 0.00 0.00
2:53 am 02:53 Clear 38 3.3 24 -4.4 57 57 S 7 11 29.85 1011 10 16 0.00 0.00
3:53 am 03:53 Clear 38 3.3 24 -4.4 57 57 S 7 11 29.85 1011 10 16 0.00 0.00
4:53 am 04:53 Clear 38 3.3 25 -3.9 60 60 S 6 9 29.84 1011 10 16 0.00 0.00
5:53 am 05:53 Cloudy 39 3.9 26 -3.3 60 60 SSE 3 6 29.84 1010 10 16 0.00 0.00
6:53 am 06:53 Cloudy 40 4.4 27 -2.8 60 60 SE 5 7 29.83 1010 10 16 0.00 0.00
7:53 am 07:53 Cloudy 44 6.7 28 -2.2 53 53 S 7 11 29.82 1010 10 16 0.00 0.00
8:03 am 08:03 Cloudy 45 7.2 28 -2.2 52 52 S 7 11 29.83 1010 10 16 0.00 0.00
8:53 am 08:53 Cloudy 47 8.3 29 -1.7 50 50 S 8 13 29.83 1010 10 16 0.00 0.00
9:53 am 09:53 Cloudy 50 10 30 -1.1 46 46 SSW 16 26 29.84 1011 10 16 0.00 0.00
10:13 am 10:13 Cloudy 51 10.6 32 0 48 48 SSW 17 28 29.85 1011 10 16 0.00 0.00
10:53 am 10:53 Cloudy 52 11.1 35 1.7 53 53 S 13 20 29.83 1010 10 16 0.00 0.00
11:53 am 11:53 Cloudy with Light Rain 50 10 40 4.4 68 68 SSW 17 28 29.83 1010 7 11 0.00 0.00
12:53 pm 12:53 Cloudy 49 9.4 43 6.1 80 80 SSW 9 15 29.81 1009 10 16 0.00 0.00
1:00 pm 13:00 Cloudy 48 8.9 43 6.1 83 83 SSW 13 20 29.81 1010 10 16 0.00 0.00
1:53 pm 13:53 Cloudy 48 8.9 44 6.7 86 86 S 8 13 29.78 1009 10 16 0.00 0.00
2:21 pm 14:21 Cloudy with Light Rain 48 8.9 45 7.2 89 89 S 7 11 29.77 1008 3 4 0.02 0.51
2:28 pm 14:28 Cloudy with Light Rain 48 8.9 46 7.8 93 93 SSW 9 15 29.78 1009 5 8 0.02 0.51
2:53 pm 14:53 Cloudy 49 9.4 46 7.8 90 90 SSW 7 11 29.78 1008 10 16 0.02 0.51
3:53 pm 15:53 Cloudy with Light Rain 51 10.6 48 8.9 89 89 S 10 17 29.77 1008 10 16 0.01 0.25
4:53 pm 16:53 Cloudy 52 11.1 49 9.4 89 89 S 12 19 29.75 1007 10 16 0.01 0.25
5:53 pm 17:53 Cloudy with Light Rain 53 11.7 50 10 89 89 S 9 15 29.73 1007 10 16 0.01 0.25
6:53 pm 18:53 Cloudy with Light Rain 53 11.7 52 11.1 96 96 Calm 29.75 1007 10 16 0.02 0.51
7:53 pm 19:53 Cloudy 53 11.7 51 10.6 93 93 Calm 29.75 1007 10 16 0.00 0.00
8:19 pm 20:19 Cloudy with Mist and Fog 52 11.1 51 10.6 97 97 Calm 29.76 1008 6 10 0.00 0.00
8:40 pm 20:40 Cloudy with Light Rain 52 11.1 51 10.6 97 97 ESE 3 6 29.76 1008 4 6 0.01 0.25
8:53 pm 20:53 Cloudy with Mist and Fog 52 11.1 51 10.6 97 97 Calm 29.75 1007 5 8 0.01 0.25
9:04 pm 21:04 Cloudy with Mist and Fog 52 11.1 51 10.6 97 97 SE 5 7 29.76 1008 4 6 0.00 0.00
9:17 pm 21:17 Cloudy with Mist and Fog 52 11.1 51 10.6 97 97 SE 5 7 29.76 1008 5 8 0.00 0.00
9:53 pm 21:53 Cloudy with Light Rain 52 11.1 51 10.6 97 97 SSE 7 11 29.75 1007 8 13 0.00 0.00
10:30 pm 22:30 Cloudy with Light Rain 52 11.1 51 10.6 97 97 SSE 6 9 29.74 1007 9 14 0.03 0.76
10:53 pm 22:53 Cloudy 52 11.1 51 10.6 97 97 Calm 29.71 1006 10 16 0.03 0.76
11:19 pm 23:19 Cloudy with Light Rain 53 11.7 51 10.6 93 93 S 6 9 29.74 1007 9 14 0.01 0.25
11:53 pm 23:53 Cloudy with Light Rain 53 11.7 51 10.6 93 93 SSW 6 9 29.74 1007 10 16 0.03 0.76

Powered by AerisWeather